sat.trackr.live / text

‹ back to catalog

ICEYE-X4

NORAD 44390 · 2019-038D

PAYLOAD ACTIVE UNKNOWN

§ Identity

Operator
Country
FIN
Launch date
2019-07-05
Launch site
VOSTO
Launch vehicle
Mass (kg)
RCS (m²)

External: N2YO · Heavens-Above · Gunter

§ Orbital elements

Epoch: 2026-05-25T03:53:11.439744Z

Period
94.20 min
Inclination
97.8780°
Eccentricity
0.0013913
Mean motion
15.28690508 rev/d
Perigee alt
470.2 km
Apogee alt
489.3 km
Semi-major
6,857.9 km
B*
4.2096e-4
RAAN
176.7284°
Arg perigee
32.9583°
Mean anomaly
327.2520°
Rev number
37,828

§ Raw data

ICEYE-X41 44390U 19038D   26145.16193796  .00011700  00000+0  42096-3 0  99932 44390  97.8780 176.7284 0013913  32.9583 327.2520 15.28690508378286

JSON: /api/v1/satellites/44390 · /tle

For live sub-satellite position, see the globe view (requires WebGL).

§ Visibility from observer

Set your observer location to see the next 7 days of passes ≥ 10°. The values pass through the URL so the page stays shareable.

No JS? Fill the form by hand. The geolocation button needs JavaScript.

§ Radio — SatNOGS DB

ModeDescriptionDownlinkUplink
BPSK S-band telemetry 2.264 GHz

1 transmitter · refreshed weekly from db.satnogs.org